Location: Newark
(52.3735°N, 16.9806°E)
Time: 20:25:00
(UTC+00:00)

ISS - Visible Passes

Search period start: 23 September 2020 00:00
Search period end: 03 October 2020 00:00
Orbit: 419 x 420 km, 51.6° (Epoch: 24 September)

Date Brightness Start Highest point End Pass type
(mag) Time Alt. Az. Time Alt. Az. Time Alt. Az.
23 Sep -3.0 17:20:50 10° SW 17:24:00 39° SSE 17:27:11 10° E visible
23 Sep -3.7 18:57:16 10° W 19:00:24 72° SW 19:00:24 72° SW visible
24 Sep -3.8 18:09:54 10° WSW 18:13:16 73° S 18:14:50 29° E visible
24 Sep -1.2 19:46:40 10° W 19:47:47 19° W 19:47:47 19° W visible
25 Sep -3.6 17:22:34 10° WSW 17:25:55 62° SSE 17:29:13 10° E visible
25 Sep -3.4 18:59:17 10° W 19:02:10 61° WSW 19:02:10 61° WSW visible
26 Sep -3.8 18:11:53 10° W 18:15:16 81° S 18:16:32 36° E visible
26 Sep -0.9 19:48:41 10° W 19:49:29 16° W 19:49:29 16° W visible
27 Sep -3.7 17:24:29 10° W 17:27:51 79° S 17:30:53 13° E visible
27 Sep -2.8 19:01:16 10° W 19:03:50 44° WSW 19:03:50 44° WSW visible
28 Sep -3.7 18:13:51 10° W 18:17:13 70° S 18:18:10 42° ESE visible
28 Sep -0.6 19:50:49 10° W 19:51:08 12° W 19:51:08 12° W visible
29 Sep -3.7 17:26:24 10° W 17:29:48 78° S 17:32:31 15° E visible
29 Sep -2.1 19:03:16 10° W 19:05:29 29° WSW 19:05:29 29° WSW visible
30 Sep -3.1 18:15:47 10° W 18:19:03 47° SSW 18:19:50 38° SSE visible
01 Oct -3.4 17:28:18 10° W 17:31:39 59° SSW 17:34:14 16° ESE visible
01 Oct -1.4 19:05:30 10° W 19:07:11 18° SW 19:07:11 18° SW visible
02 Oct -2.2 18:17:48 10° W 18:20:43 27° SSW 18:21:37 23° S visible
